Destin, FL

9:52 AM CDT on July 20, 2017 (GMT -0500)
Destin-Fort Walton Beach

Weather History for KDTS - March, 2013

Change the Weather History Date:

Tuesday, March 5, 2013

  Actual Average Record
Temperature  
Mean Temperature 61 °F -  
Max Temperature 70 °F 64 °F 72 °F (1997)
Min Temperature 50 °F 49 °F 33 °F (2002)
Degree Days  
Heating Degree Days 4    
Growing Degree Days 11 (Base 50)    
Moisture  
Dew Point 57 °F    
Average Humidity 76    
Maximum Humidity 90    
Minimum Humidity 56    
Precipitation  
Precipitation 0.02 in - - ()
Sea Level Pressure  
Sea Level Pressure 30.02 in    
Wind  
Wind Speed 8 mph (WSW)    
Max Wind Speed 18 mph    
Max Gust Speed 25 mph    
Visibility 10 miles    
Events      
Averages and records for this station are not official NWS values.
T = Trace of Precipitation, MM = Missing Value Source: NWS Daily Summary

Daily Weather History Graph

Daily Weather History Graph

Search for Another Location

Airport or City:

Trip Planner

Search our weather history database for the weather conditions in past years. The results will help you decide how hot, cold, wet, or windy it might be!

Date:

Astronomy

Mar. 05, 2013 Rise Set
Actual Time 6:07 AM CST 5:47 PM CST
Civil Twilight 5:43 AM CST 6:11 PM CST
Nautical Twilight 5:15 AM CST 6:39 PM CST
Astronomical Twilight 4:47 AM CST 7:07 PM CST
Moon 1:00 AM CST (3/5) 11:44 AM CST (3/5)
Length of Visible Light 12h 28m
Length of Day
11h 40m
Last Quarter, 40% of the Moon is Illuminated
Mar 5
Last Quarter
Mar 11
New
Mar 19
First Quarter
Mar 27
Full
Apr 2
Last Quarter

Hourly Weather History & Observations

Time (CST) Temp. Dew Point Humidity Pressure Visibility Wind Dir Wind Speed Gust Speed Precip Events Conditions
1:53 AM 64.0 °F 57.9 °F 80% 30.01 in 10.0 mi SSE 8.1 mph 20.7 mph N/A   Mostly Cloudy
2:53 AM 64.0 °F 59.0 °F 84% 30.01 in 10.0 mi Variable 4.6 mph - N/A   Overcast
3:50 AM 64.4 °F 59.0 °F 83% 30.01 in 10.0 mi South 5.8 mph - N/A   Overcast
3:53 AM 64.0 °F 59.0 °F 84% 30.01 in 10.0 mi South 6.9 mph - N/A   Overcast
4:53 AM 64.0 °F 60.1 °F 87% 30.02 in 9.0 mi South 4.6 mph - 0.02 in   Mostly Cloudy
5:53 AM 63.0 °F 60.1 °F 90% 30.04 in 7.0 mi Calm Calm - N/A   Mostly Cloudy
6:53 AM 63.0 °F 60.1 °F 90% 30.04 in 6.0 mi Calm Calm - 0.00 in   Overcast
7:53 AM 66.9 °F 61.0 °F 81% 30.04 in 10.0 mi SSE 3.5 mph - N/A   Overcast
8:53 AM 68.0 °F 61.0 °F 78% 30.04 in 10.0 mi Variable 4.6 mph - N/A   Overcast
9:53 AM 70.0 °F 62.1 °F 76% 30.08 in 10.0 mi WSW 5.8 mph - N/A   Overcast
10:53 AM 70.0 °F 61.0 °F 73% 30.07 in 10.0 mi Variable 5.8 mph - N/A   Mostly Cloudy
11:53 AM 70.0 °F 59.0 °F 68% 30.04 in 10.0 mi WSW 11.5 mph 18.4 mph N/A   Overcast
12:53 PM 70.0 °F 60.1 °F 71% 30.01 in 10.0 mi SW 8.1 mph 17.3 mph N/A   Overcast
1:53 PM 68.0 °F 59.0 °F 73% 29.99 in 10.0 mi SW 10.4 mph 19.6 mph N/A   Overcast
2:53 PM 66.9 °F 60.1 °F 79% 29.97 in 10.0 mi WSW 10.4 mph 18.4 mph N/A   Overcast
3:53 PM 68.0 °F 60.1 °F 76% 29.95 in 10.0 mi SW 13.8 mph 20.7 mph N/A   Overcast
4:53 PM 66.9 °F 60.1 °F 79% 29.96 in 10.0 mi WSW 13.8 mph 24.2 mph N/A   Overcast
5:53 PM 66.0 °F 60.1 °F 81% 29.96 in 10.0 mi WSW 8.1 mph 18.4 mph N/A   Overcast
6:43 PM 66.2 °F 60.8 °F 83% 29.97 in 10.0 mi WSW 8.1 mph 18.4 mph N/A   Overcast
6:53 PM 66.0 °F 60.1 °F 81% 29.97 in 10.0 mi WSW 10.4 mph 21.9 mph N/A   Overcast
7:35 PM 64.4 °F 55.4 °F 73% 30.01 in 10.0 mi NW 10.4 mph 18.4 mph 0.00 in   Scattered Clouds
7:53 PM 64.0 °F 48.9 °F 58% 30.02 in 10.0 mi NW 16.1 mph 25.3 mph 0.00 in   Partly Cloudy
8:53 PM 61.0 °F 45.0 °F 56% 30.06 in 10.0 mi NNW 18.4 mph 24.2 mph N/A   Clear
9:53 PM 55.9 °F 44.1 °F 64% 30.10 in 10.0 mi North 16.1 mph - N/A   Clear
10:53 PM 52.0 °F 41.0 °F 66% 30.12 in 10.0 mi NNW 13.8 mph - N/A   Clear
11:53 PM 50.0 °F 39.0 °F 66% 30.12 in 10.0 mi North 11.5 mph - N/A   Clear